User: anonymous
Location: Holcomb Observatory
(44.4922°N, 73.1654°W)
Time: 12:14:35
(UTC-04:00)
Language:

Cosmos 1727 Rocket - Orbit

View from above orbital plane
View from above orbital plane
View from above satellite
View from above satellite

Ground track
Ground track

The orbit data is extracted from the following two-line orbital elements,

1 16511U 86008B   14265.50901987  .00000015  00000-0 -54528-7 0  5852
2 16511 082.9439 240.4921 0024427 188.9432 292.3390 13.75768989438957
Epoch (UTC): 22 September 2014 12:12:59
Eccentricity: 0.0024427
inclination: 82.9439°
perigee height: 961 km
apogee height: 997 km
right ascension of ascending node: 240.4921°
argument of perigee: 188.9432°
revolutions per day: 13.75768989
mean anomaly at epoch: 292.3390°
orbit number at epoch: 43895

The dashed part of the orbit path shows where the satellite is in the earth's shadow,  

DLR